| time (UTC) | temp C | wind direction | speed KPH | gust KPH | rain 1hr cm | rain 24hr cm | rain mn cm | humidity % | barometer mb |
| 20260901000226 | 18 | 250 | 8.0 | 0.0 | 0.00 | 0.00 | 0.00 | 68 | 1017.0 |
| 20260831233223 | 16 | 240 | 11.3 | 0.0 | 0.00 | 0.00 | 0.00 | 87 | 1017.0 |
| 20260831232326 | 17 | 230 | 11.3 | 0.0 | 0.00 | 0.00 | 0.00 | 82 | |
| 20260831230231 | 16 | 240 | 11.3 | 0.0 | 0.00 | 0.00 | 0.00 | 87 | 1017.0 |
| 20260831223224 | 16 | 210 | 8.0 | 0.0 | 0.00 | 0.00 | 0.00 | 87 | 1017.0 |
| 20260831222524 | 16 | 240 | 8.0 | 0.0 | 0.00 | 0.00 | 0.00 | 93 | |
| 20260831220234 | 16 | 250 | 8.0 | 0.0 | 0.00 | 0.00 | 0.00 | 87 | 1017.0 |
| 20260831213224 | 17 | 200 | 9.7 | 0.0 | 0.00 | 0.00 | 0.00 | 82 | 1017.0 |
| 20260831212210 | 18 | 190 | 8.0 | 0.0 | 0.00 | 0.00 | 0.00 | 77 | |
| 20260831210236 | 18 | 190 | 8.0 | 0.0 | 0.00 | 0.00 | 0.00 | 77 | 1016.0 |
| 20260831203223 | 17 | 230 | 3.2 | 0.0 | 0.00 | 0.00 | 0.00 | 82 | 1016.0 |
| 20260831202355 | 18 | 0 | 3.2 | 0.0 | 0.00 | 0.00 | 0.00 | 77 | |
| 20260831200233 | 18 | 210 | 4.8 | 0.0 | 0.00 | 0.00 | 0.00 | 72 | 1016.0 |
| 20260831193224 | 20 | 210 | 3.2 | 0.0 | 0.00 | 0.00 | 0.00 | 68 | 1016.0 |
| 20260831192357 | 21 | 0 | 3.2 | 0.0 | 0.00 | 0.00 | 0.00 | 68 | |
| 20260831190231 | 21 | 0 | 1.6 | 0.0 | 0.00 | 0.00 | 0.00 | 64 | 1015.0 |
| 20260831183231 | 21 | 0 | 3.2 | 0.0 | 0.00 | 0.00 | 0.00 | 68 | 1015.0 |
| 20260831182157 | 20 | 270 | 8.0 | 0.0 | 0.00 | 0.00 | 0.00 | 72 | |
| 20260831180232 | 21 | 270 | 9.7 | 0.0 | 0.00 | 0.00 | 0.00 | 68 | 1015.0 |
| 20260831173231 | 22 | 280 | 11.3 | 0.0 | 0.00 | 0.00 | 0.00 | 64 | 1015.0 |
| 20260831172355 | 23 | 280 | 11.3 | 0.0 | 0.00 | 0.00 | 0.00 | 57 | |
| 20260831170233 | 23 | 270 | 9.7 | 0.0 | 0.00 | 0.00 | 0.00 | 57 | 1015.0 |
| 20260831163231 | 25 | 240 | 11.3 | 0.0 | 0.00 | 0.00 | 0.00 | 57 | 1014.0 |
| 20260831162458 | 25 | 230 | 11.3 | 0.0 | 0.00 | 0.00 | 0.00 | 53 | |
| 20260831160236 | 23 | 220 | 11.3 | 0.0 | 0.00 | 0.00 | 0.00 | 60 | 1014.0 |
| 20260831153230 | 26 | 230 | 14.5 | 0.0 | 0.00 | 0.00 | 0.00 | 54 | 1014.0 |
| 20260831152215 | 26 | 220 | 14.5 | 0.0 | 0.00 | 0.00 | 0.00 | 50 | |
| 20260831150239 | 26 | 220 | 16.1 | 0.0 | 0.00 | 0.00 | 0.00 | 50 | 1014.0 |
| 20260831143231 | 25 | 220 | 20.9 | 0.0 | 0.00 | 0.00 | 0.00 | 57 | 1015.0 |
| 20260831142256 | 23 | 220 | 22.5 | 0.0 | 0.00 | 0.00 | 0.00 | 57 | |
| 20260831140233 | 26 | 230 | 19.3 | 0.0 | 0.00 | 0.00 | 0.00 | 50 | 1015.0 |
| 20260831133231 | 26 | 230 | 19.3 | 0.0 | 0.00 | 0.00 | 0.00 | 50 | 1015.0 |
| 20260831132255 | 23 | 240 | 25.7 | 0.0 | 0.00 | 0.00 | 0.00 | 57 | |
| 20260831130236 | 23 | 240 | 25.7 | 0.0 | 0.00 | 0.00 | 0.00 | 53 | 1015.0 |
| 20260831123231 | 23 | 250 | 24.1 | 0.0 | 0.00 | 0.00 | 0.00 | 57 | 1015.0 |
| 20260831122213 | 23 | 260 | 29.0 | 0.0 | 0.00 | 0.00 | 0.00 | 60 | |
| 20260831120233 | 23 | 260 | 27.4 | 0.0 | 0.00 | 0.00 | 0.00 | 60 | 1015.0 |
| 20260831115804 | 23 | 260 | 29.0 | 0.0 | 0.00 | 0.00 | 0.00 | 60 | 1015.0 |
| 20260831113230 | 25 | 250 | 27.4 | 0.0 | 0.00 | 0.00 | 0.00 | 53 | 1014.0 |
| 20260831112256 | 26 | 240 | 29.0 | 0.0 | 0.00 | 0.00 | 0.00 | 54 | |
| 20260831110238 | 26 | 230 | 27.4 | 0.0 | 0.00 | 0.00 | 0.00 | 50 | 1014.0 |
| 20260831105204 | 26 | 230 | 22.5 | 0.0 | 0.00 | 0.00 | 0.00 | 54 | 1014.0 |
| 20260831103230 | 23 | 240 | 14.5 | 0.0 | 0.00 | 0.00 | 0.00 | 57 | 1014.0 |
| 20260831102458 | 23 | 250 | 11.3 | 0.0 | 0.00 | 0.00 | 0.00 | 57 | |
| 20260831100235 | 23 | 250 | 11.3 | 0.0 | 0.00 | 0.00 | 0.00 | 57 | 1014.0 |
| 20260831095805 | 25 | 250 | 11.3 | 0.0 | 0.00 | 0.00 | 0.00 | 53 | 1014.0 |
| 20260831093230 | 22 | 260 | 8.0 | 0.0 | 0.00 | 0.00 | 0.00 | 64 | 1014.0 |
| 20260831092244 | 22 | 270 | 8.0 | 0.0 | 0.00 | 0.00 | 0.00 | 69 | |
| 20260831090234 | 22 | 270 | 8.0 | 0.0 | 0.00 | 0.00 | 0.00 | 64 | 1014.0 |
| 20260831083231 | 22 | 270 | 4.8 | 0.0 | 0.00 | 0.00 | 0.00 | 64 | 1014.0 |
| 20260831082416 | 22 | 0 | 3.2 | 0.0 | 0.00 | 0.00 | 0.00 | 60 | |
| 20260831080246 | 22 | 0 | 0.0 | 0.0 | 0.00 | 0.00 | 0.00 | 64 | 1014.0 |
| 20260831073231 | 21 | 0 | 3.2 | 0.0 | 0.00 | 0.00 | 0.00 | 68 | 1014.0 |
| 20260831072904 | 21 | 0 | 3.2 | 0.0 | 0.00 | 0.00 | 0.00 | 68 | 1014.0 |
| 20260831072400 | 20 | 200 | 3.2 | 0.0 | 0.00 | 0.00 | 0.00 | 68 | |
| 20260831070234 | 18 | 210 | 4.8 | 0.0 | 0.00 | 0.00 | 0.00 | 72 | 1015.0 |
| 20260831063238 | 17 | 250 | 8.0 | 0.0 | 0.00 | 0.00 | 0.00 | 77 | 1015.0 |
| 20260831062259 | 17 | 210 | 8.0 | 0.0 | 0.00 | 0.00 | 0.00 | 82 | |
| 20260831060240 | 17 | 220 | 8.0 | 0.0 | 0.00 | 0.00 | 0.00 | 82 | 1015.0 |
| 20260831053224 | 17 | 210 | 8.0 | 0.0 | 0.00 | 0.00 | 0.00 | 77 | 1015.0 |
| 20260831052412 | 17 | 0 | 3.2 | 0.0 | 0.00 | 0.00 | 0.00 | 82 | |
| 20260831050239 | 17 | 0 | 1.6 | 0.0 | 0.00 | 0.00 | 0.00 | 82 | 1015.0 |
| 20260831043230 | 16 | 0 | 1.6 | 0.0 | 0.00 | 0.00 | 0.00 | 82 | 1015.0 |
| 20260831042457 | 17 | 190 | 3.2 | 0.0 | 0.00 | 0.00 | 0.00 | 77 | |
| 20260831040235 | 16 | 190 | 4.8 | 0.0 | 0.00 | 0.00 | 0.00 | 82 | 1015.0 |
| 20260831033231 | 15 | 260 | 4.8 | 0.0 | 0.00 | 0.00 | 0.00 | 87 | 1015.0 |
| 20260831032156 | 15 | 260 | 8.0 | 0.0 | 0.00 | 0.00 | 0.00 | 82 | |
| 20260831030234 | 15 | 0 | 3.2 | 0.0 | 0.00 | 0.00 | 0.00 | 82 | 1015.0 |
| 20260831023223 | 15 | 220 | 8.0 | 0.0 | 0.00 | 0.00 | 0.00 | 87 | 1015.0 |
| 20260831022255 | 15 | 230 | 8.0 | 0.0 | 0.00 | 0.00 | 0.00 | 82 | |
| 20260831020230 | 16 | 230 | 8.0 | 0.0 | 0.00 | 0.00 | 0.00 | 82 | 1015.0 |
| 20260831013224 | 16 | 230 | 9.7 | 0.0 | 0.00 | 0.00 | 0.00 | 82 | 1015.0 |
| 20260831012256 | 16 | 230 | 8.0 | 0.0 | 0.00 | 0.00 | 0.00 | 82 | |
| 20260831010231 | 16 | 230 | 9.7 | 0.0 | 0.00 | 0.00 | 0.00 | 82 | 1015.0 |
| 20260831003224 | 17 | 230 | 4.8 | 0.0 | 0.00 | 0.00 | 0.00 | 77 | 1016.0 |
| 20260831002155 | 16 | 230 | 8.0 | 0.0 | 0.00 | 0.00 | 0.00 | 82 |